STARLINK-1884 (47167 NORAD) Tracking and Keplerian Element Data

This shows tracking and keplerian element data for the satellite.

Feedback or suggestion? Click here.




ElementValue
Catalog47167
NameSTARLINK-1884
Epoch Orbit182
Epoch Day20.91667824
Epoch Year2021
RAAN75.0167
Inclination53.056
Eccentricity0.0001201
Argument of Perigee68.722
Mean Anonmoly329.0312
Mean Motion15.40008807
Decay Rate-0.0108417
L11 47167U 20088AX 21020.91667824 -.01084170 00000-0 -29159-1 0 9991
L22 47167 53.0560 75.0167 0001201 68.7220 329.0312 15.40008807 1825

Live tracking and technical data element details for STARLINK-1884 (NORAD 47167). STARLINK-1884 can be tracked NOW for your location showing map with azimuth and elevation plus other details from your city location.

Track the satellite on the map from your city or location and see movement details for azimuth, elevation, latitude, longitude, range, height, and movement on the map or in text.







IsCatalogInMostPopularTable: catalog: 47167, numindb: 27
Update: records affected: 1



GetName: 47167 STARLINK-1884

Hit Count: updated at: Fri, 22 Jan 2021 16:34:14 GMT